Location: Allie Creek
(37.5926°N, 89.8526°W)
Time: 04:22:48
(UTC+00:00)

Meteor 1-27 Rocket - Pass Details

Date: 15 April 2024
Orbit: 829 x 909 km, 81.3° (Epoch: 27 May)

Event Time Altitude Azimuth Distance (km) Brightness Sun altitude
Exits shadow 07:58:34 32° 88° (E) 1,475 5.1 -34.8°
Drops below altitude 10° 08:03:28 10° 30° (NNE) 2,521 7.0 -34.3°
Sets 08:06:06 0° 20° (NNE) 3,449 7.8 -33.9°
